Regional Weather Roundup
Issued by NWS

Home | Current Version | Previous Version | Text Only | Print | Product List | Glossary Off
Versions: 1 2 3 4 5 6 7 8 9 10 11 12 13 14 15 16 17 18 19 20 21 22 23 24 25 26 27

000
ASUS45 KBOU 231407
RWRCO

WEATHER ROUNDUP FOR COLORADO
NATIONAL WEATHER SERVICE DENVER/BOULDER CO
800 AM MDT THU OCT 23 2014

NOTE: "FAIR" INDICATES FEW OR NO CLOUDS BELOW 12000 FEET WITH NO
SIGNIFICANT WEATHER AND/OR OBSTRUCTIONS TO VISIBILITY.

COZ001>005-013-030-031-231500-
...NORTHWEST COLORADO...

CITY           SKY/WX    TMP DP  RH WIND       PRES   REMARKS
CRAIG          CLEAR     28  25  88 CALM      30.29R
HAYDEN         CLEAR     36  28  75 SE13      30.29R
MEEKER         CLEAR     34  31  88 CALM      30.30R
MOUNT WERNER   NOT AVBL
STEAMBOAT SPGS CLEAR     30  29  94 CALM      30.31R
WALDEN         CLEAR     37  30  75 S13       30.30R
$$

COZ006>008-011-231500-
...WEST CENTRAL VALLEYS...

CITY           SKY/WX    TMP DP  RH WIND       PRES   REMARKS
GRAND JUNCTION CLEAR     43  37  79 SE6       30.24R
MONTROSE       CLEAR     39  34  82 S3        30.30R
EAGLE          FOG       32  30  93 CALM      30.37R VSB 1/2
RIFLE          CLEAR     35  33  92 CALM      30.30R
DELTA          CLEAR     41  34  75 CALM      30.28R
NUCLA          CLEAR     41  32  70 SE3       30.32
$$

COZ017>023-064>068-231500-
...SOUTHWEST COLORADO...

CITY           SKY/WX    TMP DP  RH WIND       PRES   REMARKS
DURANGO        CLEAR     36  34  92 NE3       30.31R
CORTEZ         CLEAR     33  30  88 E3        30.28R
PAGOSA SPRINGS CLEAR     34  34  99 CALM      30.36R
TELLURIDE      CLEAR     37  32  82 SE3       30.42S
WOLF CREEK PAS CLEAR     34  21  60 CALM        N/A
$$

COZ009-010-012-014-032>034-037-058>063-231500-
...CENTRAL COLORADO...

CITY           SKY/WX    TMP DP  RH WIND       PRES   REMARKS
ASPEN          CLEAR     33  27  78 SW8       30.35R WCI  26
BUENA VISTA    CLEAR     30  27  89 W6        30.35S WCI  24
COPPER MTN     PTCLDY    34  27  75 W18       30.49R WCI  23
BERTHOUD PASS  FAIR      27  23  86 NW38G44   30.42S WCI   9
COTTONWOOD PAS CLEAR     43  23  45 W10G16    30.39S
GUNNISON       PTCLDY    28  23  80 CALM      30.41R
KREMMLING      FOG      N/A N/A N/A CALM        N/A  VSB<1/4
LEADVILLE      CLOUDY    34  25  69 CALM      30.40R
MONARCH PASS   CLEAR     30  27  86 MISG      30.57R
SALIDA         CLEAR     37  31  77 CALM      30.41R
SUNLIGHT       CLEAR     36  30  80 CALM      30.46R
WILKERSON PASS NOT AVBL
$$

COZ069>075-231500-
...SAN LUIS VALLEY/SANGRE DE CRISTO MOUNTAINS...

CITY           SKY/WX    TMP DP  RH WIND       PRES   REMARKS
ALAMOSA        PTCLDY    29  26  89 SW5       30.35R WCI  24
LA VETA PASS   CLEAR     34  28  80 S9        30.41R WCI  26
SAGUACHE       CLEAR     37  30  75 NW13      30.36R
$$

COZ035-036-038>040-231500-
...NORTHERN COLORADO FRONT RANGE...

CITY           SKY/WX    TMP DP  RH WIND       PRES   REMARKS
DENVER INTL AP PTCLDY    45  34  65 E5        30.17S
DMNS CITY PARK   N/A     46  34  61 S8        30.18R
AURORA         PTCLDY    45  33  64 S10       30.19S
FRONT RANGE AP NOT AVBL
ERIE MUNI ARPT PTCLDY    37  35  92 N3        30.16S
BOULDER MUN AP PTCLDY    43  36  75 CALM      30.16S
CENTENNIAL     PTCLDY    47  33  58 S13       30.19S
BROOMFIELD     PTCLDY    46  36  66 SW3       30.18S
FORT COLLINS   CLEAR     37  32  81 S6        30.18R
LONGMONT       CLEAR     40  34  79 NW6       30.18S HAZE
$$

COZ041-046-047-076>085-087-088-231500-
...PIKES PEAK/PALMER DIVIDE AND SOUTHERN FOOTHILLS...

CITY           SKY/WX    TMP DP  RH WIND       PRES   REMARKS
COLO. SPRINGS  PTCLDY    45  34  65 N3        30.23R
A. F. ACADEMY  CLEAR     38  30  72 N8        30.24R
ELLICOTT       NOT AVBL
FALCON         CLEAR     45  31  59 NW9       30.26R
FORT CARSON    CLEAR     43  35  74 N10       30.21R
LIMON          CLEAR     37  35  92 MISG      30.19R
MONUMENT HILL  CLEAR     37  30  75 SW7       30.25R
TRINIDAD       CLEAR     48  34  58 W13       30.22R
$$

COZ042>045-048>051-090-091-231500-
...NORTHEAST COLORADO...

CITY           SKY/WX    TMP DP  RH WIND       PRES   REMARKS
GREELEY ARPT   CLEAR     36  27  69 N3        30.17R
AKRON          PTCLDY    45  41  86 W14       30.15R
BURLINGTON     MOCLDY    45  42  89 W3        30.16R
WRAY           CLEAR     42  37  80 W5        30.14R
STERLING       PTCLDY    36  34  93 SW5       30.13S
HOLYOKE        CLEAR     43  34  70 W6        30.12R
FORT MORGAN    PTCLDY    37  34  91 W8        30.15S
$$

COZ086-089-092>099-231500-
...SOUTHEAST COLORADO...

CITY           SKY/WX    TMP DP  RH WIND       PRES   REMARKS
PUEBLO         CLEAR     46  39  76 W6        30.18R
LA JUNTA       CLEAR     46  43  89 W10       30.16R
LAMAR          PTCLDY    44  43  96 SW6       30.12R
SPRINGFIELD      N/A     49  47  93 NW9       30.14R
$$



USA.gov is the U.S. government's official web portal to all federal, state and local government web resources and services.